ARIANE 44LP DEB, 25538

Orbit data source: Space-Track

ARIANE 44LP DEB, 25538 is space debris in HEO originally from a launch on Sun, 11 Dec 1988 UTC launched from the French Guiana (FRGUI). Debris objects in space refer to the collection of defunct objects orbiting the Earth. Examples of debris include non-operational satellites, rocket bodies, and fragments generated from explosions, collisions, or faulty payload assembly.

Loading next visibility...
Identifier
25538, 1988-109E
Orbit
HEO
Country
Flag of FRFR
Related business
Manufacturer
Unknown
Mission
Spacecraft
Bus & Motor
Unknown
Mass
Unknown
Launch date (UTC)
1988-12-11 (37 years ago)
Launch vehicle
Unknown
Launch site
French Guiana (FRGUI)
Object type
Payload
Rocket body
Debris
Shape & HBR
Unknown
Radar Cross Section
Medium (>0.1 m² and <1 m²)

Expand to show TLE details & history
Last TLE update: 1 day ago

TLE from 1 day ago
0 ARIANE 44LP DEB
1 25538U 88109E   25250.28660797 -.00000007  00000-0  37754-3 0  9995
2 25538   6.3717 231.6577 7190072  74.7873   9.8624  2.23928691219779
Epoch: 2025-09-07T06:52Z
TLE epoch observation values (Epoch: 2025-09-07T06:52:42.928Z)
Latitude
3.75703°
Longitude
-74.56906°
Altitude
3,041.612 km
Speed
8.275 km/s
True Right ascension
01h 00m 52s
True Declination
3° 44' 24"
Sunlit
Object was in full shadow at epoch
Visualization orbit readout
Latitude
Unknown
Longitude
Unknown
Altitude
Unknown
Speed
Unknown
Apparent Right ascension
Unknown
Apparent Declination
Unknown
Sunlit
N/A
Visualization observer readout
Local Sidereal Time
07:02:21
Azimuth
Unknown
Elevation
Unknown
Doppler factor
Unknown
Orbital elements
Apogee altitude
36,054.348 km
Perigee altitude
557.973 km
Semi-major axis
24,684.297 km
Eccentricity
0.71901
Inclination
6.3717°
RAAN
231.6577°
Arg. of periapsis
74.7873°
True anomaly
69.27087°
Mean anomaly
9.8624°
Eccentric anomaly
31.208°
Mean motion
0.55964 °/min
Orbital period
643.27 mins
BSTAR
0.00037754
Loading maneuver chart data...
Computing Atmospheric mass density...
Loading historical data...
Loading historical data...
Loading historical data...
Loading historical data...
Loading historical data...
Loading historical data...
Loading historical data...

Documentation

Showing up to 5 results
|